Погода в Сосновом

Россия / Краснодарский край     44°10′36″N   38°56′44″E
темп.,
°C
ветер,
м/с
пор.,
м/с
влажн.,
%
обл.,
%
осадки,
мм/ч
давл.,
гПа
погр.,
м
17 мая, вт
вт1700:00+10юв22937 0.0 102031
03:00+10ююв229160 0.0 101960
06:00+12ю268699 0.1 1018341
09:00+14ю478098 0.3 1018684
12:00+14ю488498 0.7 1018673
15:00+16ююз5761100 0.8 10181043
18:00+15ю357094 0.0 1018603
21:00+10юв119567 0.0 101826
18 мая, ср
ср1800:00+10юв22937 0.0 101748
03:00+9ююв22926 0.0 101664
06:00+10ююв24877 0.0 1014125
09:00+16ю61262100 0.0 1012956
12:00+18ю8145341 0.0 10111126
15:00+18ю7155246 0.0 10101193
18:00+16ююз5127197 0.1 1010860
21:00+13юз4999100 5.3 1012667
19 мая, чт
чт1900:00+11зюз3896100 1.7 1014521
03:00+10зюз2496100 2.8 1016272
06:00+9зюз2294100 0.9 1018102
09:00+9зюз3795100 5.1 1020648
12:00+12зюз5779100 1.6 10211195
15:00+12зюз578253 3.1 10231122
18:00+11юз359287 1.9 1024605
21:00+9ююв239595 3.5 1025106
20 мая, пт
пт2000:00+9юв229650 0.4 1026109
03:00+7юв119439 0.4 102670
06:00+7юв119472 0.0 102779
09:00+13ю227259 0.0 1027859
12:00+14ююз436778 0.4 10271013
15:00+15ююз446035 0.4 10261177
18:00+14ююз336929 0.0 1026757
21:00+9юв119331 0.0 102750
21 мая, сб
сб2100:00+8юв229598 0.0 102686
03:00+8юв229642 0.0 102572
06:00+9ююв22949 0.0 1024116
09:00+14ю346799 0.0 1022869
12:00+16ююз44578 0.0 1021868
15:00+16юз34551 0.0 1019695
18:00+14юз23650 0.0 1018360
21:00+8юв11904 0.0 101823